• In India
  • List of Countries
  • For 7 days
  • Water Temperature
  • Satellite Maps
  • Weather Map
  • Weather Widgets
  • user-avatar
    Login

    Hourly Weather Kohima

    Today, 19 January, Saturday

    Time Temperature Precipitation Wind Pressure Humidity
    00:00 +8°C° 0 mm 1 mps 651 mmHg 77%
    01:00 +8°C° 0 mm 1 mps 651 mmHg 76%
    02:00 +8°C° 0 mm 1 mps 651 mmHg 74%
    03:00 +7°C° 0 mm 1 mps 651 mmHg 73%
    04:00 +7°C° 0 mm 1 mps 651 mmHg 72%
    05:00 +7°C° 0 mm 1 mps 652 mmHg 72%
    06:00 +7°C° 0 mm 1 mps 651 mmHg 70%
    07:00 +10°C° 0 mm 1 mps 653 mmHg 62%
    08:00 +12°C° 0 mm 0 mps 654 mmHg 54%
    09:00 +15°C° 0 mm 0 mps 655 mmHg 46%
    10:00 +16°C° 0 mm 0 mps 656 mmHg 42%
    11:00 +20°C° 0 mm 1 mps 656 mmHg 39%
    12:00 +21°C° 0 mm 1 mps 656 mmHg 35%
    13:00 +21°C° 0 mm 1 mps 655 mmHg 36%
    14:00 +20°C° 0 mm 1 mps 654 mmHg 38%
    15:00 +20°C° 0 mm 1 mps 653 mmHg 39%
    16:00 +16°C° 0 mm 1 mps 653 mmHg 51%
    17:00 +13°C° 0 mm 1 mps 652 mmHg 64%
    18:00 +9°C° 0 mm 0 mps 651 mmHg 76%
    19:00 +8°C° 0 mm 0 mps 651 mmHg 77%
    20:00 +9°C° 0 mm 1 mps 651 mmHg 78%
    21:00 +8°C° 0 mm 1 mps 652 mmHg 80%
    22:00 +8°C° 0 mm 1 mps 652 mmHg 78%
    23:00 +8°C° 0 mm 1 mps 652 mmHg 77%

    Tomorrow, 20 January, Sunday

    Time Temperature Precipitation Wind Pressure Humidity
    00:00 +8°C° 0 mm 1 mps 652 mmHg 76%
    01:00 +8°C° 0 mm 1 mps 652 mmHg 75%
    02:00 +7°C° 0 mm 1 mps 652 mmHg 75%
    03:00 +7°C° 0 mm 1 mps 652 mmHg 74%
    04:00 +7°C° 0 mm 1 mps 652 mmHg 73%
    05:00 +7°C° 0 mm 1 mps 652 mmHg 73%
    06:00 +7°C° 0 mm 1 mps 652 mmHg 72%
    07:00 +10°C° 0 mm 1 mps 653 mmHg 63%
    08:00 +12°C° 0 mm 0 mps 655 mmHg 54%
    09:00 +15°C° 0 mm 0 mps 656 mmHg 45%
    10:00 +16°C° 0 mm 0 mps 656 mmHg 41%
    11:00 +20°C° 0 mm 1 mps 656 mmHg 37%
    12:00 +21°C° 0 mm 1 mps 656 mmHg 33%
    13:00 +21°C° 0 mm 1 mps 655 mmHg 35%
    14:00 +20°C° 0 mm 1 mps 655 mmHg 38%
    15:00 +20°C° 0 mm 1 mps 654 mmHg 40%
    16:00 +16°C° 0 mm 1 mps 653 mmHg 51%
    17:00 +13°C° 0 mm 1 mps 652 mmHg 62%
    18:00 +9°C° 0 mm 0 mps 651 mmHg 74%
    19:00 +9°C° 0 mm 0 mps 652 mmHg 75%
    20:00 +9°C° 0 mm 1 mps 652 mmHg 76%
    21:00 +9°C° 0 mm 1 mps 652 mmHg 77%
    22:00 +9°C° 0 mm 1 mps 652 mmHg 77%
    23:00 +8°C° 0 mm 1 mps 652 mmHg 77%

    Day after tomorrow, 21 January, Monday

    Time Temperature Precipitation Wind Pressure Humidity
    00:00 +8°C° 0 mm 1 mps 652 mmHg 77%
    01:00 +8°C° 0 mm 1 mps 652 mmHg 77%
    02:00 +8°C° 0 mm 1 mps 652 mmHg 78%
    03:00 +8°C° 0 mm 1 mps 652 mmHg 78%
    04:00 +8°C° 0 mm 1 mps 652 mmHg 78%
    05:00 +7°C° 0 mm 1 mps 652 mmHg 78%
    06:00 +7°C° 0 mm 1 mps 652 mmHg 78%
    07:00 +9°C° 0 mm 0 mps 654 mmHg 68%
    08:00 +12°C° 0 mm 0 mps 655 mmHg 58%
    09:00 +15°C° 0 mm 0 mps 657 mmHg 47%
    10:00 +17°C° 0 mm 0 mps 657 mmHg 44%
    11:00 +20°C° 0 mm 1 mps 657 mmHg 40%
    12:00 +22°C° 0 mm 1 mps 657 mmHg 37%
    13:00 +21°C° 0 mm 1 mps 656 mmHg 39%
    14:00 +21°C° 0 mm 1 mps 655 mmHg 41%
    15:00 +20°C° 0 mm 1 mps 654 mmHg 42%
    16:00 +18°C° 0 mm 1 mps 654 mmHg 53%
    17:00 +14°C° 0 mm 1 mps 653 mmHg 64%
    18:00 +10°C° 0 mm 0 mps 652 mmHg 75%
    19:00 +10°C° 0 mm 0 mps 652 mmHg 76%
    20:00 +10°C° 0 mm 1 mps 653 mmHg 77%
    21:00 +10°C° 0 mm 1 mps 653 mmHg 78%
    22:00 +9°C° 0 mm 1 mps 653 mmHg 78%
    23:00 +9°C° 0 mm 1 mps 653 mmHg 77%

    22 January, Tuesday

    Time Temperature Precipitation Wind Pressure Humidity
    00:00 +9°C° 0 mm 1 mps 652 mmHg 77%
    01:00 +9°C° 0 mm 1 mps 652 mmHg 76%
    02:00 +9°C° 0 mm 1 mps 652 mmHg 76%
    03:00 +8°C° 0 mm 1 mps 651 mmHg 75%
    04:00 +8°C° 0 mm 1 mps 651 mmHg 75%
    05:00 +8°C° 0 mm 1 mps 652 mmHg 74%
    06:00 +8°C° 0 mm 1 mps 652 mmHg 73%
    07:00 +11°C° 0 mm 1 mps 653 mmHg 64%
    08:00 +13°C° 0 mm 0 mps 655 mmHg 54%
    09:00 +16°C° 0 mm 0 mps 656 mmHg 45%
    10:00 +20°C° 0 mm 1 mps 656 mmHg 41%
    11:00 +21°C° 0 mm 1 mps 656 mmHg 37%
    12:00 +22°C° 0 mm 1 mps 656 mmHg 33%
    13:00 +22°C° 0 mm 1 mps 656 mmHg 35%
    14:00 +22°C° 0 mm 1 mps 655 mmHg 37%
    15:00 +21°C° 0 mm 1 mps 654 mmHg 38%
    16:00 +18°C° 0 mm 1 mps 653 mmHg 49%
    17:00 +14°C° 0 mm 1 mps 653 mmHg 60%
    18:00 +11°C° 0 mm 0 mps 652 mmHg 70%
    19:00 +10°C° 0 mm 0 mps 652 mmHg 71%
    20:00 +11°C° 0 mm 1 mps 653 mmHg 72%
    21:00 +10°C° 0 mm 1 mps 653 mmHg 73%
    22:00 +10°C° 0 mm 1 mps 653 mmHg 73%
    23:00 +9°C° 0 mm 1 mps 653 mmHg 73%

    23 January, Wednesday

    Time Temperature Precipitation Wind Pressure Humidity
    00:00 +9°C° 0 mm 1 mps 653 mmHg 73%
    01:00 +9°C° 0 mm 1 mps 653 mmHg 73%
    02:00 +9°C° 0 mm 1 mps 652 mmHg 73%
    03:00 +9°C° 0 mm 1 mps 652 mmHg 73%
    04:00 +8°C° 0 mm 1 mps 652 mmHg 72%
    05:00 +8°C° 0 mm 1 mps 652 mmHg 71%
    06:00 +8°C° 0 mm 1 mps 653 mmHg 70%
    07:00 +11°C° 0 mm 1 mps 654 mmHg 61%
    08:00 +13°C° 0 mm 0 mps 656 mmHg 52%
    09:00 +16°C° 0 mm 0 mps 657 mmHg 43%
    10:00 +17°C° 0 mm 0 mps 657 mmHg 39%
    11:00 +21°C° 0 mm 1 mps 657 mmHg 36%
    12:00 +22°C° 0 mm 1 mps 657 mmHg 32%
    13:00 +22°C° 0 mm 1 mps 656 mmHg 33%
    14:00 +21°C° 0 mm 1 mps 655 mmHg 35%
    15:00 +21°C° 0 mm 1 mps 654 mmHg 36%
    16:00 +18°C° 0 mm 1 mps 654 mmHg 46%
    17:00 +14°C° 0 mm 1 mps 653 mmHg 57%
    18:00 +10°C° 0 mm 0 mps 652 mmHg 67%
    19:00 +10°C° 0 mm 0 mps 653 mmHg 68%
    20:00 +10°C° 0 mm 1 mps 653 mmHg 69%
    21:00 +10°C° 0 mm 1 mps 653 mmHg 70%
    22:00 +10°C° 0 mm 1 mps 653 mmHg 70%
    23:00 +9°C° 0 mm 1 mps 653 mmHg 70%

    24 January, Thursday

    Time Temperature Precipitation Wind Pressure Humidity
    00:00 +9°C° 0 mm 1 mps 653 mmHg 70%
    01:00 +9°C° 0 mm 1 mps 653 mmHg 69%
    02:00 +9°C° 0 mm 1 mps 653 mmHg 68%
    03:00 +9°C° 0 mm 1 mps 653 mmHg 67%
    04:00 +9°C° 0 mm 1 mps 653 mmHg 66%
    05:00 +8°C° 0 mm 1 mps 653 mmHg 66%
    06:00 +8°C° 0 mm 1 mps 653 mmHg 65%
    07:00 +10°C° 0 mm 0 mps 655 mmHg 58%
    08:00 +13°C° 0 mm 0 mps 656 mmHg 50%
    09:00 +16°C° 0 mm 0 mps 658 mmHg 42%
    10:00 +18°C° 0 mm 0 mps 658 mmHg 39%
    11:00 +21°C° 0 mm 1 mps 658 mmHg 36%
    12:00 +22°C° 0 mm 1 mps 658 mmHg 32%
    13:00 +22°C° 0 mm 1 mps 657 mmHg 33%
    14:00 +21°C° 0 mm 1 mps 656 mmHg 34%
    15:00 +21°C° 0 mm 1 mps 655 mmHg 36%
    16:00 +18°C° 0 mm 1 mps 655 mmHg 46%
    17:00 +14°C° 0 mm 1 mps 654 mmHg 56%
    18:00 +10°C° 0 mm 0 mps 653 mmHg 65%
    19:00 +10°C° 0 mm 0 mps 654 mmHg 66%
    20:00 +11°C° 0 mm 1 mps 654 mmHg 67%
    21:00 +10°C° 0 mm 1 mps 654 mmHg 67%
    22:00 +10°C° 0 mm 1 mps 654 mmHg 67%
    23:00 +10°C° 0 mm 1 mps 654 mmHg 66%
    Show more